Find Starlink 35690

NORAD ID: 66383 Int'l Des: 2025-257 Owner: SPXS Country: US Constellation: starlink operational
LEOCIRCULAR

Current View

Loading 3D Globe...

About Starlink 35690

Description loading...

Upcoming Passes

Passes for default location (London). Set your location on the main map for personalized predictions.

Altitude History

Loading altitude history...

Two-Line Element Set

1 66383U 25257D 26145.92215394 .00025440 00000-0 76138-3 0 9993
2 66383 53.1598 217.1887 0000759 111.6092 248.4992 15.34405506 31571
Epoch: May 25, 2026 • Age: 18 hours

Current Status

Altitude 462.7 km
Velocity 7.64 km/s
Sub-Earth Point 20.72°N, 106.82°W
Launch Date Nov 9, 2025
Age 0.5 years
Type internet

Technical Details

Classification Payload
Mass 575.00 kg
Dry Mass 530.00 kg
Total Mass 575.00 kg
Length 0.30 m
Diameter 4.10 m
Span 29.00 m
Shape Box + pan
Manufacturer SPXS
Bus Type Starlink V2MO
Phase Status In Orbit
Owner/State SPXS/US

Most Searched